FW8954 Weather Reports


time (UTC)temp
F
wind
direction
speed
knots
gust
knots
rain 1hr
in
rain 24hr
in
rain mn
in
humidity
%
barometer
mb
20260505140536 54 333 2.6 7.8 0.00 0.00 0.00 63 1013.4
20260505125030 57 0 0.0 0.9 0.00 0.00 0.00 39 1012.3
20260505124543 57 0 0.0 2.6 0.00 0.00 0.00 39 1012.2
20260505124034 57 285 0.0 2.6 0.00 0.00 0.00 39 1012.4
20260505123535 57 266 0.9 1.7 0.00 0.00 0.00 39 1012.4
20260505123103 57 0 0.0 1.7 0.00 0.00 0.00 39 1012.4
20260505122537 57 0 0.0 1.7 0.00 0.00 0.00 39 1012.5
20260505122034 57 0 0.0 1.7 0.00 0.00 0.00 39 1012.3
20260505121547 57 269 0.0 0.9 0.00 0.00 0.00 38 1012.3
20260505121034 58 0 0.0 0.9 0.00 0.00 0.00 38 1012.3
20260505120534 58 278 0.0 2.6 0.00 0.00 0.00 38 1012.3
20260505120046 58 289 0.9 2.6 0.00 0.00 0.00 38 1012.3
20260505115534 57 297 0.9 3.5 0.00 0.00 0.00 38 1012.1
20260505115035 57 290 0.9 3.5 0.00 0.00 0.00 38 1012.2
20260505114545 57 259 0.9 2.6 0.00 0.00 0.00 38 1012.3
20260505114035 57 0 0.0 1.7 0.00 0.00 0.00 38 1012.2
20260505113534 57 224 0.0 0.9 0.00 0.00 0.00 37 1012.1
20260505113042 58 0 0.0 0.9 0.00 0.00 0.00 37 1012.1
20260505112534 58 0 0.0 0.9 0.00 0.00 0.00 36 1012.1
20260505112031 58 297 0.0 0.9 0.00 0.00 0.00 36 1012.1
20260505111552 58 274 0.0 1.7 0.00 0.00 0.00 36 1012.0
20260505111034 58 264 0.0 1.7 0.00 0.00 0.00 36 1012.0
20260505110531 58 281 0.0 1.7 0.00 0.00 0.00 36 1012.1
20260505102034 58 222 0.0 0.9 0.00 0.00 0.00 37 1012.3
20260505101545 58 0 0.0 0.9 0.00 0.00 0.00 37 1012.2
20260505101037 58 0 0.0 0.0 0.00 0.00 0.00 36 1012.2
20260505100538 58 0 0.0 0.0 0.00 0.00 0.00 36 1012.2
20260505100051 58 0 0.0 0.9 0.00 0.00 0.00 36 1012.2
20260505095534 58 0 0.0 0.9 0.00 0.00 0.00 36 1012.2
20260505095034 59 0 0.0 0.9 0.00 0.00 0.00 35 1012.3
20260505094544 59 276 0.0 1.7 0.00 0.00 0.00 35 1012.2
20260505094033 59 280 0.0 1.7 0.00 0.00 0.00 35 1012.2
20260505093534 58 283 0.0 1.7 0.00 0.00 0.00 35 1012.1
20260505093044 58 224 0.0 0.9 0.00 0.00 0.00 35 1012.1
20260505092535 58 0 0.0 0.9 0.00 0.00 0.00 35 1012.1
20260505092034 58 0 0.0 0.9 0.00 0.00 0.00 35 1012.3
20260505091554 59 0 0.0 0.0 0.00 0.00 0.00 35 1012.4
20260505091031 59 0 0.0 0.0 0.00 0.00 0.00 34 1012.3
20260505090533 60 0 0.0 0.0 0.00 0.00 0.00 33 1012.3
20260505090054 60 0 0.0 0.9 0.00 0.00 0.00 32 1012.3
20260505085534 60 0 0.0 1.7 0.00 0.00 0.00 32 1012.5
20260505085034 61 354 0.0 4.3 0.00 0.00 0.00 31 1012.5
20260505084543 61 290 0.0 4.3 0.00 0.00 0.00 31 1012.5
20260505084034 61 274 1.7 4.3 0.00 0.00 0.00 31 1012.5
20260505083534 61 274 0.9 4.3 0.00 0.00 0.00 31 1012.5
20260505083054 61 285 0.9 3.5 0.00 0.00 0.00 32 1012.5
20260505082534 61 254 0.9 5.2 0.00 0.00 0.00 32 1012.6
20260505082034 61 293 1.7 5.2 0.00 0.00 0.00 32 1012.7
20260505081557 61 250 2.6 7.0 0.00 0.00 0.00 32 1012.8
20260505081034 62 283 2.6 7.0 0.00 0.00 0.00 32 1012.8
20260505080534 62 257 3.5 7.0 0.00 0.00 0.00 31 1013.0
20260505080048 62 255 1.7 4.3 0.00 0.00 0.00 31 1012.8
20260505075530 62 283 1.7 3.5 0.00 0.00 0.00 31 1012.9
20260505075034 62 267 1.7 6.1 0.00 0.00 0.00 30 1013.0
20260505074602 62 251 1.7 6.1 0.00 0.00 0.00 30 1012.9
20260505074034 62 290 2.6 6.1 0.00 0.00 0.00 30 1012.8
20260505073535 62 267 3.5 6.1 0.00 0.00 0.00 30 1012.8
20260505073044 62 276 1.7 5.2 0.00 0.00 0.00 30 1012.8
20260505072533 63 278 1.7 4.3 0.00 0.00 0.00 30 1012.7
20260505072033 63 250 1.7 5.2 0.00 0.00 0.00 30 1012.7
20260505071545 63 266 0.0 7.0 0.00 0.00 0.00 30 1012.8
20260505071034 63 323 1.7 7.0 0.00 0.00 0.00 29 1012.6
20260505070531 63 158 2.6 6.1 0.00 0.00 0.00 29 1012.6
20260505070048 63 250 2.6 6.1 0.00 0.00 0.00 29 1012.5
20260505065532 64 260 1.7 7.8 0.00 0.00 0.00 29 1012.3
20260505065034 64 330 1.7 8.7 0.00 0.00 0.00 28 1012.3
20260505064546 64 205 2.6 8.7 0.00 0.00 0.00 28 1012.3
20260505064034 64 143 3.5 8.7 0.00 0.00 0.00 28 1012.3
20260505063534 64 174 2.6 7.0 0.00 0.00 0.00 27 1012.2
20260505063044 64 278 1.7 7.0 0.00 0.00 0.00 27 1012.1
20260505062535 64 144 1.7 8.7 0.00 0.00 0.00 27 1012.0
20260505062035 64 233 1.7 8.7 0.00 0.00 0.00 26 1012.1
20260505061618 65 266 0.9 8.7 0.00 0.00 0.00 26 1012.1
20260505061032 65 293 2.6 8.7 0.00 0.00 0.00 26 1012.1
20260505060538 65 257 1.7 7.0 0.00 0.00 0.00 25 1012.1
20260505060052 65 321 2.6 7.0 0.00 0.00 0.00 25 1012.1
20260505055534 65 276 2.6 7.8 0.00 0.00 0.00 25 1012.0
20260505055033 65 250 2.6 7.8 0.00 0.00 0.00 25 1012.0
20260505054557 65 281 2.6 7.8 0.00 0.00 0.00 25 1012.1
20260505054037 66 274 1.7 7.8 0.00 0.00 0.00 25 1012.1
20260505053531 66 278 2.6 7.8 0.00 0.00 0.00 25 1012.1
20260505053045 66 287 3.5 6.1 0.00 0.00 0.00 25 1012.0
20260505052532 66 285 1.7 5.2 0.00 0.00 0.00 25 1012.0
20260505052034 66 285 1.7 5.2 0.00 0.00 0.00 25 1012.0
20260505051539 66 289 1.7 5.2 0.00 0.00 0.00 25 1011.8
20260505051033 66 275 0.9 4.3 0.00 0.00 0.00 25 1011.9
20260505050533 66 237 0.9 5.2 0.00 0.00 0.00 25 1011.8
20260505041542 67 325 0.0 4.3 0.00 0.00 0.00 24 1011.8
20260505041034 67 280 0.0 4.3 0.00 0.00 0.00 24 1011.7
20260505040533 68 0 0.0 3.5 0.00 0.00 0.00 24 1011.7
20260505040044 68 241 0.0 4.3 0.00 0.00 0.00 24 1011.7
20260505035537 68 0 0.9 4.3 0.00 0.00 0.00 24 1011.6
20260505035034 68 206 0.0 2.6 0.00 0.00 0.00 24 1011.7
20260505034549 68 289 0.0 2.6 0.00 0.00 0.00 24 1011.7
20260505034034 68 272 0.9 4.3 0.00 0.00 0.00 23 1011.5
20260505033535 69 281 1.7 5.2 0.00 0.00 0.00 23 1011.3
20260505033050 69 257 1.7 5.2 0.00 0.00 0.00 23 1011.3
20260505032533 69 286 2.6 7.8 0.00 0.00 0.00 23 1011.1
20260505032034 69 255 3.5 7.8 0.00 0.00 0.00 23 1011.0
20260505031542 69 275 3.5 9.6 0.00 0.00 0.00 22 1011.0
20260505031034 69 274 5.2 9.6 0.00 0.00 0.00 22 1010.9
20260505030532 69 265 5.2 10.4 0.00 0.00 0.00 22 1010.8
20260505030050 69 289 4.3 10.4 0.00 0.00 0.00 22 1010.7
20260505025535 70 287 5.2 9.6 0.00 0.00 0.00 22 1010.8
20260505025031 70 304 4.3 9.6 0.00 0.00 0.00 21 1010.7
20260505024605 70 271 5.2 11.3 0.00 0.00 0.00 21 1010.7
20260505024032 70 276 6.1 11.3 0.00 0.00 0.00 21 1010.6
20260505023535 70 297 3.5 7.0 0.00 0.00 0.00 21 1010.6
20260505023050 71 285 3.5 9.6 0.00 0.00 0.00 20 1010.5
20260505022534 71 294 3.5 9.6 0.00 0.00 0.00 20 1010.5
20260505022035 71 300 2.6 7.0 0.00 0.00 0.00 20 1010.5
20260505021602 71 289 2.6 8.7 0.00 0.00 0.00 19 1010.5
20260505021034 71 280 3.5 8.7 0.00 0.00 0.00 19 1010.4
20260505020534 71 274 3.5 7.8 0.00 0.00 0.00 19 1010.3
20260505020047 72 233 3.5 7.8 0.00 0.00 0.00 19 1010.2
20260505015535 72 285 2.6 7.0 0.00 0.00 0.00 20 1010.1
20260505015034 72 219 3.5 7.0 0.00 0.00 0.00 19 1010.1
20260505014551 72 293 1.7 7.0 0.00 0.00 0.00 19 1010.1
20260505014034 72 281 1.7 7.0 0.00 0.00 0.00 19 1010.0
20260505013538 72 313 2.6 7.8 0.00 0.00 0.00 19 1010.0
20260505013039 72 214 2.6 7.8 0.00 0.00 0.00 19 1009.9
20260505012534 73 285 4.3 7.8 0.00 0.00 0.00 19 1009.8
20260505012034 73 271 2.6 7.8 0.00 0.00 0.00 19 1009.7
20260505011553 73 235 3.5 7.8 0.00 0.00 0.00 19 1009.7
20260505011033 73 293 2.6 7.8 0.00 0.00 0.00 18 1009.7
20260505010534 73 315 2.6 7.0 0.00 0.00 0.00 18 1009.7
20260505010050 73 290 2.6 7.0 0.00 0.00 0.00 18 1009.7
20260505005535 74 270 2.6 8.7 0.00 0.00 0.00 18 1009.7
20260505005035 74 231 2.6 8.7 0.00 0.00 0.00 18 1009.8
20260505004545 74 276 4.3 11.3 0.00 0.00 0.00 17 1009.7
20260505004034 74 279 3.5 11.3 0.00 0.00 0.00 17 1009.7
20260505003535 74 325 3.5 8.7 0.00 0.00 0.00 17 1009.8
20260505003049 74 212 2.6 8.7 0.00 0.00 0.00 16 1009.8
20260505002534 75 264 3.5 10.4 0.00 0.00 0.00 16 1009.8
20260505002034 75 259 4.3 10.4 0.00 0.00 0.00 16 1009.9
20260505001543 75 288 5.2 10.4 0.00 0.00 0.00 15 1009.9
20260505001035 75 226 3.5 10.4 0.00 0.00 0.00 15 1009.9
20260505000535 75 207 5.2 10.4 0.00 0.00 0.00 14 1010.0
20260505000046 75 300 3.5 8.7 0.00 0.00 0.00 14 1009.8
20260504235535 75 148 2.6 8.7 0.00 0.00 0.00 15 1009.7
20260504235038 75 276 2.6 8.7 0.00 0.00 0.00 15 1009.9
20260504234542 75 293 3.5 9.6 0.00 0.00 0.00 14 1009.9
20260504234040 75 229 3.5 11.3 0.00 0.00 0.00 14 1009.9
20260504233533 75 309 3.5 11.3 0.00 0.00 0.00 14 1010.0
20260504233056 75 286 3.5 10.4 0.00 0.00 0.00 14 1010.0
20260504232534 75 283 3.5 11.3 0.00 0.00 0.00 13 1010.0
20260504232034 75 272 4.3 11.3 0.00 0.00 0.00 13 1010.1
20260504231548 75 276 3.5 10.4 0.00 0.00 0.00 13 1010.0
20260504231034 75 226 3.5 9.6 0.00 0.00 0.00 12 1010.0
20260504230532 76 297 3.5 9.6 0.00 0.00 0.00 12 1010.1
20260504230046 76 174 3.5 9.6 0.00 0.00 0.00 12 1010.0
20260504225535 76 272 3.5 11.3 0.00 0.00 0.00 12 1010.0
20260504225035 76 328 3.5 11.3 0.00 0.00 0.00 12 1010.1
20260504224545 76 261 5.2 11.3 0.00 0.00 0.00 12 1010.2
20260504224036 76 236 3.5 9.6 0.00 0.00 0.00 12 1010.2
20260504223535 76 241 4.3 9.6 0.00 0.00 0.00 12 1010.2
20260504223053 76 100 4.3 9.6 0.00 0.00 0.00 12 1010.2
20260504222534 76 204 3.5 10.4 0.00 0.00 0.00 11 1010.4
20260504222034 76 273 4.3 11.3 0.00 0.00 0.00 11 1010.5
20260504221547 76 280 4.3 11.3 0.00 0.00 0.00 12 1010.4
20260504221033 76 178 6.1 11.3 0.00 0.00 0.00 12 1010.5
20260504220534 77 266 3.5 13.0 0.00 0.00 0.00 11 1010.6
20260504220117 77 130 3.5 13.0 0.00 0.00 0.00 11 1010.7
20260504215534 77 236 3.5 13.0 0.00 0.00 0.00 12 1010.8
20260504215031 77 226 4.3 13.0 0.00 0.00 0.00 12 1010.8
20260504214547 77 155 6.1 12.2 0.00 0.00 0.00 11 1010.9
20260504214035 78 227 3.5 11.3 0.00 0.00 0.00 11 1010.9
20260504213534 78 219 5.2 12.2 0.00 0.00 0.00 11 1011.1
20260504213050 78 293 4.3 12.2 0.00 0.00 0.00 12 1011.1
20260504212534 78 241 3.5 12.2 0.00 0.00 0.00 12 1011.1
20260504212037 79 231 4.3 12.2 0.00 0.00 0.00 12 1011.2
20260504211548 79 190 3.5 11.3 0.00 0.00 0.00 12 1011.2
20260504211034 79 173 2.6 11.3 0.00 0.00 0.00 11 1011.2
20260504210534 79 179 2.6 8.7 0.00 0.00 0.00 12 1011.5
20260504210100 79 224 2.6 7.0 0.00 0.00 0.00 12 1011.7
20260504205534 78 324 2.6 7.8 0.00 0.00 0.00 14 1011.8
20260504205034 77 146 1.7 7.8 0.00 0.00 0.00 15 1012.1
20260504204557 77 314 3.5 9.6 0.00 0.00 0.00 15 1012.2
20260504204035 77 304 3.5 9.6 0.00 0.00 0.00 15 1012.4
20260504203533 76 238 2.6 9.6 0.00 0.00 0.00 16 1012.5
20260504203047 75 266 0.9 9.6 0.00 0.00 0.00 17 1012.5
20260504202536 75 283 3.5 9.6 0.00 0.00 0.00 17 1012.8
20260504202037 76 243 4.3 10.4 0.00 0.00 0.00 16 1012.8
20260504201548 76 304 3.5 11.3 0.00 0.00 0.00 17 1013.0
20260504201033 76 274 4.3 11.3 0.00 0.00 0.00 16 1013.0
20260504200539 76 250 2.6 7.0 0.00 0.00 0.00 16 1013.1
20260504200047 75 291 1.7 6.1 0.00 0.00 0.00 17 1013.0
20260504195534 75 300 2.6 7.8 0.00 0.00 0.00 17 1013.2
20260504195035 75 285 2.6 7.8 0.00 0.00 0.00 17 1013.2
20260504194544 75 210 2.6 7.0 0.00 0.00 0.00 17 1013.3
20260504194034 75 273 3.5 7.8 0.00 0.00 0.00 17 1013.3
20260504193535 74 207 3.5 7.8 0.00 0.00 0.00 18 1013.3
20260504193054 75 261 2.6 7.0 0.00 0.00 0.00 17 1013.5
20260504192535 75 114 1.7 10.4 0.00 0.00 0.00 17 1013.5
20260504192034 75 281 4.3 10.4 0.00 0.00 0.00 18 1013.5
20260504191542 75 132 2.6 7.8 0.00 0.00 0.00 18 1013.5
20260504191036 74 122 2.6 7.8 0.00 0.00 0.00 19 1013.5
20260504190534 74 275 2.6 7.8 0.00 0.00 0.00 19 1013.6
20260504190046 74 212 2.6 8.7 0.00 0.00 0.00 19 1013.7
20260504185534 73 238 3.5 8.7 0.00 0.00 0.00 20 1014.1
20260504185034 73 256 3.5 7.8 0.00 0.00 0.00 18 1014.0
20260504184550 73 296 3.5 7.8 0.00 0.00 0.00 19 1014.3
20260504184035 73 229 2.6 8.7 0.00 0.00 0.00 20 1014.5
20260504183535 73 184 3.5 8.7 0.00 0.00 0.00 19 1014.5
20260504183043 74 281 1.7 7.8 0.00 0.00 0.00 20 1014.4
20260504182538 73 202 3.5 7.8 0.00 0.00 0.00 21 1014.5
20260504182034 72 229 2.6 7.0 0.00 0.00 0.00 21 1014.6
20260504181555 72 261 3.5 8.7 0.00 0.00 0.00 21 1014.7
20260504181035 72 276 3.5 11.3 0.00 0.00 0.00 21 1014.7
20260504180540 72 280 1.7 11.3 0.00 0.00 0.00 21 1014.7
20260504180053 72 258 4.3 11.3 0.00 0.00 0.00 20 1014.8
20260504175539 72 254 4.3 8.7 0.00 0.00 0.00 18 1014.8
20260504175035 72 240 1.7 5.2 0.00 0.00 0.00 19 1014.7
20260504174548 72 180 2.6 5.2 0.00 0.00 0.00 20 1014.7
20260504174035 71 291 1.7 5.2 0.00 0.00 0.00 20 1014.9
20260504173538 71 250 1.7 6.1 0.00 0.00 0.00 21 1015.0
20260504173045 71 290 2.6 6.1 0.00 0.00 0.00 22 1015.0
20260504172534 70 224 1.7 7.8 0.00 0.00 0.00 22 1015.1
20260504172035 71 305 3.5 7.8 0.00 0.00 0.00 21 1015.3
20260504171545 71 204 2.6 6.1 0.00 0.00 0.00 22 1015.3
20260504171035 70 193 2.6 6.1 0.00 0.00 0.00 23 1015.2
20260504170533 70 233 1.7 6.1 0.00 0.00 0.00 25 1015.1
20260504151031 62 108 0.9 2.6 0.00 0.00 0.00 50 1015.8
20260504150535 62 0 0.0 3.5 0.00 0.00 0.00 51 1015.8